| time (UTC) | temp C | wind direction | speed KPH | gust KPH | rain 1hr cm | rain 24hr cm | rain mn cm | humidity % | barometer mb |
| 20260510175505 | 10 | 44 | 3.2 | 16.1 | 0.00 | 0.00 | 0.00 | 45 | 1019.8 |
| 20260510175005 | 10 | 77 | 4.8 | 14.5 | 0.00 | 0.00 | 0.00 | 44 | 1019.9 |
| 20260510174504 | 10 | 11 | 3.2 | 16.1 | 0.00 | 0.00 | 0.00 | 43 | 1019.8 |
| 20260510174004 | 11 | 342 | 3.2 | 12.9 | 0.00 | 0.00 | 0.00 | 46 | 1019.8 |
| 20260510173505 | 10 | 336 | 8.0 | 16.1 | 0.00 | 0.00 | 0.00 | 45 | 1019.7 |
| 20260510173005 | 10 | 321 | 4.8 | 12.9 | 0.00 | 0.00 | 0.00 | 49 | 1019.7 |
| 20260510171505 | 10 | 353 | 4.8 | 19.3 | 0.00 | 0.00 | 0.00 | 45 | 1019.6 |
| 20260510171005 | 11 | 67 | 3.2 | 11.3 | 0.00 | 0.00 | 0.00 | 44 | 1019.5 |
| 20260510170505 | 11 | 236 | 4.8 | 12.9 | 0.00 | 0.00 | 0.00 | 44 | 1019.6 |
| 20260510170004 | 11 | 333 | 3.2 | 12.9 | 0.00 | 0.00 | 0.00 | 44 | 1019.6 |
| 20260510164505 | 10 | 0 | 8.0 | 14.5 | 0.00 | 0.00 | 0.00 | 43 | 1019.5 |
| 20260510163505 | 10 | 7 | 8.0 | 25.7 | 0.00 | 0.00 | 0.00 | 46 | 1019.5 |
| 20260510163005 | 10 | 49 | 4.8 | 14.5 | 0.00 | 0.00 | 0.00 | 46 | 1019.4 |
| 20260510162505 | 10 | 129 | 1.6 | 8.0 | 0.00 | 0.00 | 0.00 | 45 | 1019.3 |
| 20260510162005 | 10 | 98 | 4.8 | 12.9 | 0.00 | 0.00 | 0.00 | 45 | 1019.3 |
| 20260510161005 | 10 | 335 | 1.6 | 14.5 | 0.00 | 0.00 | 0.00 | 48 | 1019.1 |
| 20260510160504 | 10 | 346 | 1.6 | 19.3 | 0.00 | 0.00 | 0.00 | 47 | 1019.0 |
| 20260510160005 | 10 | 308 | 8.0 | 22.5 | 0.00 | 0.00 | 0.00 | 46 | 1019.0 |
| 20260510155504 | 10 | 323 | 8.0 | 19.3 | 0.00 | 0.00 | 0.00 | 45 | 1018.9 |
| 20260510154504 | 9 | 68 | 4.8 | 19.3 | 0.00 | 0.00 | 0.00 | 46 | 1019.1 |
| 20260510153005 | 9 | 351 | 1.6 | 16.1 | 0.00 | 0.00 | 0.00 | 47 | 1019.0 |
| 20260510152504 | 8 | 265 | 8.0 | 19.3 | 0.00 | 0.00 | 0.00 | 47 | 1018.9 |
| 20260510152004 | 8 | 342 | 4.8 | 11.3 | 0.00 | 0.00 | 0.00 | 48 | 1018.9 |
| 20260510151505 | 8 | 317 | 6.4 | 11.3 | 0.00 | 0.00 | 0.00 | 47 | 1018.8 |
| 20260510151004 | 8 | 336 | 6.4 | 12.9 | 0.00 | 0.00 | 0.00 | 48 | 1018.7 |
| 20260510150504 | 8 | 17 | 1.6 | 16.1 | 0.00 | 0.00 | 0.00 | 48 | 1018.5 |
| 20260510150005 | 8 | 23 | 4.8 | 14.5 | 0.00 | 0.00 | 0.00 | 46 | 1018.6 |
| 20260510145505 | 8 | 342 | 4.8 | 19.3 | 0.00 | 0.00 | 0.00 | 48 | 1018.5 |
| 20260510144504 | 7 | 345 | 6.4 | 12.9 | 0.00 | 0.00 | 0.00 | 51 | 1018.6 |
| 20260510144004 | 7 | 8 | 6.4 | 19.3 | 0.00 | 0.00 | 0.00 | 50 | 1018.6 |
| 20260510143505 | 7 | 343 | 9.7 | 19.3 | 0.00 | 0.00 | 0.00 | 51 | 1018.5 |
| 20260510143005 | 7 | 53 | 4.8 | 11.3 | 0.00 | 0.00 | 0.00 | 56 | 1018.5 |
| 20260510141505 | 7 | 302 | 1.6 | 9.7 | 0.00 | 0.00 | 0.00 | 56 | 1018.6 |
| 20260510141004 | 7 | 342 | 4.8 | 14.5 | 0.00 | 0.00 | 0.00 | 58 | 1018.5 |
| 20260510140004 | 6 | 356 | 4.8 | 12.9 | 0.00 | 0.00 | 0.00 | 59 | 1018.4 |
| 20260510135504 | 6 | 346 | 6.4 | 16.1 | 0.00 | 0.00 | 0.00 | 59 | 1018.4 |
| 20260510135005 | 6 | 1 | 4.8 | 11.3 | 0.00 | 0.00 | 0.00 | 62 | 1018.2 |
| 20260510134505 | 6 | 67 | 3.2 | 14.5 | 0.00 | 0.00 | 0.00 | 63 | 1018.3 |
| 20260510134005 | 6 | 325 | 1.6 | 12.9 | 0.00 | 0.00 | 0.00 | 64 | 1018.3 |
| 20260510132505 | 6 | 332 | 4.8 | 12.9 | 0.00 | 0.00 | 0.00 | 66 | 1018.2 |
| 20260510132005 | 5 | 356 | 8.0 | 11.3 | 0.00 | 0.00 | 0.00 | 67 | 1018.2 |
| 20260510131505 | 5 | 307 | 4.8 | 14.5 | 0.00 | 0.00 | 0.00 | 68 | 1018.2 |
| 20260510131004 | 5 | 335 | 4.8 | 14.5 | 0.00 | 0.00 | 0.00 | 68 | 1018.1 |
| 20260510130504 | 5 | 38 | 1.6 | 4.8 | 0.00 | 0.00 | 0.00 | 68 | 1018.1 |
| 20260510130005 | 5 | 36 | 3.2 | 4.8 | 0.00 | 0.00 | 0.00 | 69 | 1018.2 |
| 20260510125505 | 5 | 36 | 1.6 | 12.9 | 0.00 | 0.00 | 0.00 | 69 | 1018.1 |
| 20260510125004 | 5 | 8 | 3.2 | 16.1 | 0.00 | 0.00 | 0.00 | 69 | 1018.1 |
| 20260510124504 | 5 | 344 | 4.8 | 19.3 | 0.00 | 0.00 | 0.00 | 71 | 1018.2 |
| 20260510124004 | 4 | 332 | 3.2 | 11.3 | 0.00 | 0.00 | 0.00 | 73 | 1018.0 |
| 20260510123504 | 4 | 42 | 1.6 | 9.7 | 0.00 | 0.00 | 0.00 | 74 | 1017.8 |
| 20260510123005 | 3 | 340 | 3.2 | 9.7 | 0.00 | 0.00 | 0.00 | 75 | 1017.7 |
| 20260510122504 | 3 | 13 | 1.6 | 11.3 | 0.00 | 0.00 | 0.00 | 77 | 1017.7 |
| 20260510121504 | 2 | 333 | 3.2 | 4.8 | 0.00 | 0.00 | 0.00 | 81 | 1017.5 |
| 20260510121004 | 1 | 324 | 1.6 | 8.0 | 0.00 | 0.00 | 0.00 | 84 | 1017.4 |
| 20260510120505 | 1 | 320 | 3.2 | 9.7 | 0.00 | 0.00 | 0.00 | 85 | 1017.4 |
| 20260510115504 | 0 | 332 | 1.6 | 4.8 | 0.00 | 0.00 | 0.00 | 85 | 1017.3 |
| 20260510115005 | 0 | 18 | 0.0 | 3.2 | 0.00 | 0.00 | 0.00 | 85 | 1017.2 |
| 20260510114505 | 0 | 57 | 0.0 | 0.0 | 0.00 | 0.00 | 0.00 | 85 | 1017.1 |
| 20260510114005 | -1 | 57 | 0.0 | 0.0 | 0.00 | 0.00 | 0.00 | 85 | 1017.1 |
| 20260510113505 | -1 | 57 | 0.0 | 0.0 | 0.00 | 0.00 | 0.00 | 85 | 1017.1 |
| 20260510113005 | -1 | 57 | 0.0 | 0.0 | 0.00 | 0.00 | 0.00 | 84 | 1017.0 |
| 20260510112505 | -1 | 57 | 0.0 | 0.0 | 0.00 | 0.00 | 0.00 | 84 | 1016.9 |
| 20260510111504 | 0 | 57 | 0.0 | 0.0 | 0.00 | 0.00 | 0.00 | 84 | 1016.8 |
| 20260510111004 | 0 | 57 | 0.0 | 0.0 | 0.00 | 0.00 | 0.00 | 83 | 1016.6 |
| 20260510110505 | 0 | 57 | 0.0 | 0.0 | 0.00 | 0.00 | 0.00 | 83 | 1016.6 |
| 20260510110005 | 0 | 57 | 0.0 | 0.0 | 0.00 | 0.00 | 0.00 | 83 | 1016.6 |
| 20260510105505 | 0 | 57 | 0.0 | 0.0 | 0.00 | 0.00 | 0.00 | 83 | 1016.6 |
| 20260510104504 | 0 | 57 | 0.0 | 0.0 | 0.00 | 0.00 | 0.00 | 82 | 1016.5 |
| 20260510104005 | 0 | 57 | 0.0 | 0.0 | 0.00 | 0.00 | 0.00 | 82 | 1016.4 |
| 20260510103504 | 0 | 57 | 0.0 | 0.0 | 0.00 | 0.00 | 0.00 | 82 | 1016.3 |
| 20260510103004 | 0 | 57 | 0.0 | 0.0 | 0.00 | 0.00 | 0.00 | 81 | 1016.3 |
| 20260510102504 | 0 | 57 | 0.0 | 0.0 | 0.00 | 0.00 | 0.00 | 81 | 1016.2 |
| 20260510102004 | 0 | 57 | 0.0 | 0.0 | 0.00 | 0.00 | 0.00 | 81 | 1016.1 |
| 20260510101504 | 0 | 57 | 0.0 | 0.0 | 0.00 | 0.00 | 0.00 | 80 | 1016.1 |
| 20260510101005 | 0 | 57 | 0.0 | 0.0 | 0.00 | 0.00 | 0.00 | 80 | 1016.0 |
| 20260510100505 | 0 | 57 | 0.0 | 0.0 | 0.00 | 0.00 | 0.00 | 80 | 1016.0 |
| 20260510100005 | 1 | 57 | 0.0 | 0.0 | 0.00 | 0.00 | 0.00 | 80 | 1015.9 |
| 20260510095505 | 1 | 57 | 0.0 | 0.0 | 0.00 | 0.00 | 0.00 | 80 | 1015.9 |
| 20260510095005 | 1 | 57 | 0.0 | 0.0 | 0.00 | 0.00 | 0.00 | 80 | 1015.8 |
| 20260510094504 | 1 | 57 | 0.0 | 0.0 | 0.00 | 0.00 | 0.00 | 79 | 1015.8 |
| 20260510094005 | 1 | 57 | 0.0 | 0.0 | 0.00 | 0.00 | 0.00 | 79 | 1015.7 |
| 20260510093505 | 1 | 57 | 0.0 | 0.0 | 0.00 | 0.00 | 0.00 | 80 | 1015.6 |
| 20260510093005 | 1 | 57 | 0.0 | 0.0 | 0.00 | 0.00 | 0.00 | 80 | 1015.6 |
| 20260510092005 | 1 | 57 | 0.0 | 0.0 | 0.00 | 0.00 | 0.00 | 80 | 1015.6 |
| 20260510091005 | 1 | 57 | 0.0 | 0.0 | 0.00 | 0.00 | 0.00 | 80 | 1015.4 |
| 20260510090505 | 1 | 57 | 0.0 | 0.0 | 0.00 | 0.00 | 0.00 | 80 | 1015.3 |
| 20260510085504 | 1 | 57 | 0.0 | 0.0 | 0.00 | 0.00 | 0.00 | 80 | 1015.1 |
| 20260510085005 | 1 | 57 | 0.0 | 0.0 | 0.00 | 0.00 | 0.00 | 82 | 1015.1 |
| 20260510084505 | 1 | 57 | 0.0 | 0.0 | 0.00 | 0.00 | 0.00 | 82 | 1015.1 |
| 20260510083505 | 0 | 57 | 0.0 | 0.0 | 0.00 | 0.00 | 0.00 | 82 | 1014.9 |
| 20260510083004 | 0 | 57 | 0.0 | 0.0 | 0.00 | 0.00 | 0.00 | 83 | 1014.9 |
| 20260510082504 | 0 | 57 | 0.0 | 0.0 | 0.00 | 0.00 | 0.00 | 83 | 1014.9 |
| 20260510082004 | 0 | 57 | 0.0 | 0.0 | 0.00 | 0.00 | 0.00 | 83 | 1014.8 |
| 20260510081504 | 0 | 57 | 0.0 | 0.0 | 0.00 | 0.00 | 0.00 | 83 | 1014.7 |
| 20260510081005 | 0 | 57 | 0.0 | 0.0 | 0.00 | 0.00 | 0.00 | 82 | 1014.6 |
| 20260510080504 | 0 | 57 | 0.0 | 0.0 | 0.00 | 0.00 | 0.00 | 82 | 1014.6 |
| 20260510080004 | 0 | 57 | 0.0 | 0.0 | 0.00 | 0.00 | 0.00 | 82 | 1014.6 |
| 20260510075505 | 0 | 57 | 0.0 | 0.0 | 0.00 | 0.00 | 0.00 | 82 | 1014.6 |
| 20260510075004 | 0 | 57 | 0.0 | 0.0 | 0.00 | 0.00 | 0.00 | 82 | 1014.8 |
| 20260510074505 | 0 | 57 | 0.0 | 0.0 | 0.00 | 0.00 | 0.00 | 83 | 1014.7 |
| 20260510074004 | 0 | 57 | 0.0 | 0.0 | 0.00 | 0.00 | 0.00 | 83 | 1014.7 |
| 20260510073504 | 0 | 57 | 0.0 | 0.0 | 0.00 | 0.00 | 0.00 | 83 | 1014.7 |
| 20260510073005 | 0 | 57 | 0.0 | 0.0 | 0.00 | 0.00 | 0.00 | 82 | 1014.7 |
| 20260510072505 | 0 | 57 | 0.0 | 0.0 | 0.00 | 0.00 | 0.00 | 82 | 1014.6 |
| 20260510072005 | 0 | 57 | 0.0 | 0.0 | 0.00 | 0.00 | 0.00 | 82 | 1014.6 |
| 20260510071504 | 0 | 57 | 0.0 | 0.0 | 0.00 | 0.00 | 0.00 | 82 | 1014.6 |
| 20260510071005 | 0 | 57 | 0.0 | 0.0 | 0.00 | 0.00 | 0.00 | 81 | 1014.6 |
| 20260510070505 | 0 | 57 | 0.0 | 0.0 | 0.00 | 0.00 | 0.00 | 81 | 1014.6 |
| 20260510065505 | 0 | 57 | 0.0 | 0.0 | 0.00 | 0.00 | 0.00 | 80 | 1014.5 |
| 20260510064004 | 0 | 57 | 0.0 | 0.0 | 0.00 | 0.00 | 0.00 | 80 | 1014.4 |
| 20260510063004 | 0 | 57 | 0.0 | 0.0 | 0.00 | 0.00 | 0.00 | 80 | 1014.4 |
| 20260510062004 | 0 | 57 | 0.0 | 0.0 | 0.00 | 0.00 | 0.00 | 79 | 1014.3 |
| 20260510061004 | 0 | 57 | 0.0 | 0.0 | 0.00 | 0.00 | 0.00 | 78 | 1014.3 |
| 20260510060504 | 0 | 57 | 0.0 | 0.0 | 0.00 | 0.00 | 0.00 | 78 | 1014.2 |
| 20260510060005 | 0 | 57 | 0.0 | 0.0 | 0.00 | 0.00 | 0.00 | 78 | 1014.3 |
| 20260510055505 | 0 | 57 | 0.0 | 0.0 | 0.00 | 0.00 | 0.00 | 78 | 1014.3 |
| 20260510055005 | 0 | 57 | 0.0 | 0.0 | 0.00 | 0.00 | 0.00 | 78 | 1014.3 |
| 20260510054504 | 0 | 57 | 0.0 | 0.0 | 0.00 | 0.00 | 0.00 | 77 | 1014.2 |
| 20260510054004 | 0 | 57 | 0.0 | 0.0 | 0.00 | 0.00 | 0.00 | 77 | 1014.2 |
| 20260510053505 | 0 | 57 | 0.0 | 0.0 | 0.00 | 0.00 | 0.00 | 76 | 1014.2 |
| 20260510053004 | 0 | 57 | 0.0 | 0.0 | 0.00 | 0.00 | 0.00 | 76 | 1014.2 |
| 20260510052505 | 0 | 57 | 0.0 | 0.0 | 0.00 | 0.00 | 0.00 | 75 | 1014.1 |
| 20260510052004 | 0 | 57 | 0.0 | 0.0 | 0.00 | 0.00 | 0.00 | 75 | 1014.1 |
| 20260510051504 | 0 | 57 | 0.0 | 0.0 | 0.00 | 0.00 | 0.00 | 74 | 1014.0 |
| 20260510050505 | 1 | 57 | 0.0 | 0.0 | 0.00 | 0.00 | 0.00 | 72 | 1014.0 |
| 20260510050005 | 1 | 57 | 0.0 | 0.0 | 0.00 | 0.00 | 0.00 | 72 | 1014.0 |
| 20260510045505 | 1 | 57 | 0.0 | 0.0 | 0.00 | 0.00 | 0.00 | 71 | 1014.0 |
| 20260510044505 | 2 | 57 | 0.0 | 0.0 | 0.00 | 0.00 | 0.00 | 69 | 1014.0 |
| 20260510044004 | 2 | 57 | 0.0 | 0.0 | 0.00 | 0.00 | 0.00 | 68 | 1014.0 |
| 20260510043505 | 2 | 57 | 0.0 | 0.0 | 0.00 | 0.00 | 0.00 | 67 | 1014.0 |
| 20260510043004 | 2 | 57 | 0.0 | 0.0 | 0.00 | 0.00 | 0.00 | 66 | 1013.9 |
| 20260510042505 | 2 | 57 | 0.0 | 0.0 | 0.00 | 0.00 | 0.00 | 65 | 1013.9 |
| 20260510042005 | 3 | 57 | 0.0 | 0.0 | 0.00 | 0.00 | 0.00 | 66 | 1013.8 |
| 20260510041505 | 3 | 57 | 0.0 | 0.0 | 0.00 | 0.00 | 0.00 | 64 | 1013.8 |
| 20260510041005 | 3 | 57 | 0.0 | 0.0 | 0.00 | 0.00 | 0.00 | 63 | 1013.7 |
| 20260510040504 | 3 | 57 | 0.0 | 0.0 | 0.00 | 0.00 | 0.00 | 61 | 1013.7 |
| 20260510040004 | 4 | 57 | 0.0 | 0.0 | 0.00 | 0.00 | 0.00 | 59 | 1013.7 |
| 20260510035505 | 5 | 57 | 0.0 | 0.0 | 0.00 | 0.00 | 0.00 | 59 | 1013.7 |
| 20260510035005 | 5 | 57 | 0.0 | 0.0 | 0.00 | 0.00 | 0.00 | 58 | 1013.6 |
| 20260510034005 | 6 | 57 | 0.0 | 0.0 | 0.00 | 0.00 | 0.00 | 56 | 1013.7 |
| 20260510033505 | 6 | 57 | 0.0 | 0.0 | 0.00 | 0.00 | 0.00 | 55 | 1013.6 |
| 20260510033005 | 6 | 57 | 0.0 | 0.0 | 0.00 | 0.00 | 0.00 | 54 | 1013.6 |
| 20260510032504 | 6 | 57 | 0.0 | 0.0 | 0.00 | 0.00 | 0.00 | 53 | 1013.6 |
| 20260510032005 | 6 | 57 | 0.0 | 0.0 | 0.00 | 0.00 | 0.00 | 50 | 1013.5 |
| 20260510031004 | 7 | 57 | 0.0 | 0.0 | 0.00 | 0.00 | 0.00 | 48 | 1013.4 |
| 20260510030505 | 7 | 57 | 0.0 | 0.0 | 0.00 | 0.00 | 0.00 | 47 | 1013.3 |
| 20260510030005 | 7 | 57 | 0.0 | 0.0 | 0.00 | 0.00 | 0.00 | 47 | 1013.3 |
| 20260510025004 | 7 | 57 | 0.0 | 0.0 | 0.00 | 0.00 | 0.00 | 46 | 1013.2 |
| 20260510024504 | 8 | 57 | 0.0 | 1.6 | 0.00 | 0.00 | 0.00 | 46 | 1013.2 |
| 20260510024004 | 8 | 57 | 0.0 | 0.0 | 0.00 | 0.00 | 0.00 | 46 | 1013.1 |
| 20260510023505 | 8 | 57 | 0.0 | 3.2 | 0.00 | 0.00 | 0.00 | 45 | 1012.9 |
| 20260510023005 | 8 | 57 | 0.0 | 1.6 | 0.00 | 0.00 | 0.00 | 45 | 1012.9 |
| 20260510022504 | 8 | 57 | 0.0 | 1.6 | 0.00 | 0.00 | 0.00 | 45 | 1012.8 |
| 20260510022005 | 8 | 69 | 0.0 | 4.8 | 0.00 | 0.00 | 0.00 | 44 | 1012.7 |
| 20260510021505 | 8 | 0 | 1.6 | 4.8 | 0.00 | 0.00 | 0.00 | 44 | 1012.6 |
| 20260510021004 | 8 | 19 | 0.0 | 3.2 | 0.00 | 0.00 | 0.00 | 43 | 1012.4 |
| 20260510020504 | 9 | 19 | 1.6 | 4.8 | 0.00 | 0.00 | 0.00 | 42 | 1012.3 |
| 20260510015505 | 9 | 316 | 1.6 | 8.0 | 0.00 | 0.00 | 0.00 | 41 | 1012.1 |
| 20260510015005 | 9 | 351 | 1.6 | 9.7 | 0.00 | 0.00 | 0.00 | 41 | 1012.0 |
| 20260510014505 | 9 | 80 | 1.6 | 4.8 | 0.00 | 0.00 | 0.00 | 41 | 1011.8 |
| 20260510014004 | 9 | 14 | 1.6 | 4.8 | 0.00 | 0.00 | 0.00 | 40 | 1011.8 |
| 20260510013005 | 10 | 62 | 1.6 | 4.8 | 0.00 | 0.00 | 0.00 | 40 | 1011.6 |
| 20260510012504 | 10 | 331 | 0.0 | 11.3 | 0.00 | 0.00 | 0.00 | 40 | 1011.3 |
| 20260510012004 | 10 | 41 | 1.6 | 11.3 | 0.00 | 0.00 | 0.00 | 40 | 1011.3 |
| 20260510011504 | 10 | 15 | 3.2 | 8.0 | 0.00 | 0.00 | 0.00 | 39 | 1011.2 |
| 20260510011005 | 10 | 331 | 1.6 | 8.0 | 0.00 | 0.00 | 0.00 | 39 | 1011.1 |
| 20260510010505 | 10 | 11 | 3.2 | 8.0 | 0.00 | 0.00 | 0.00 | 38 | 1010.9 |
| 20260510010004 | 10 | 9 | 1.6 | 11.3 | 0.00 | 0.00 | 0.00 | 38 | 1010.9 |
| 20260510005505 | 11 | 26 | 1.6 | 9.7 | 0.00 | 0.00 | 0.00 | 38 | 1010.8 |
| 20260510005004 | 11 | 73 | 1.6 | 8.0 | 0.00 | 0.00 | 0.00 | 38 | 1010.7 |
| 20260510004505 | 11 | 43 | 0.0 | 4.8 | 0.00 | 0.00 | 0.00 | 37 | 1010.6 |
| 20260510004005 | 11 | 351 | 0.0 | 4.8 | 0.00 | 0.00 | 0.00 | 38 | 1010.6 |
| 20260510003504 | 11 | 339 | 1.6 | 9.7 | 0.00 | 0.00 | 0.00 | 37 | 1010.5 |
| 20260510003004 | 11 | 342 | 1.6 | 8.0 | 0.00 | 0.00 | 0.00 | 36 | 1010.5 |
| 20260510002505 | 11 | 333 | 0.0 | 8.0 | 0.00 | 0.00 | 0.00 | 37 | 1010.4 |
| 20260510002004 | 11 | 17 | 0.0 | 12.9 | 0.00 | 0.00 | 0.00 | 37 | 1010.3 |
| 20260510001504 | 11 | 10 | 3.2 | 12.9 | 0.00 | 0.00 | 0.00 | 36 | 1010.2 |
| 20260510001004 | 11 | 30 | 4.8 | 19.3 | 0.00 | 0.00 | 0.00 | 36 | 1010.2 |
| 20260510000505 | 11 | 306 | 4.8 | 19.3 | 0.00 | 0.00 | 0.00 | 37 | 1010.1 |
| 20260509235504 | 11 | 352 | 1.6 | 16.1 | 0.00 | 0.00 | 0.00 | 36 | 1010.0 |
| 20260509235004 | 11 | 347 | 3.2 | 16.1 | 0.00 | 0.00 | 0.00 | 35 | 1010.0 |
| 20260509234504 | 12 | 27 | 3.2 | 11.3 | 0.00 | 0.00 | 0.00 | 36 | 1009.8 |
| 20260509234004 | 12 | 336 | 1.6 | 9.7 | 0.00 | 0.00 | 0.00 | 37 | 1009.8 |
| 20260509233504 | 12 | 315 | 1.6 | 8.0 | 0.00 | 0.00 | 0.00 | 37 | 1009.7 |
| 20260509233004 | 12 | 26 | 1.6 | 8.0 | 0.00 | 0.00 | 0.00 | 36 | 1009.7 |
| 20260509232005 | 12 | 94 | 1.6 | 11.3 | 0.00 | 0.00 | 0.00 | 36 | 1009.7 |
| 20260509231504 | 12 | 24 | 3.2 | 11.3 | 0.00 | 0.00 | 0.00 | 37 | 1009.6 |
| 20260509230004 | 12 | 340 | 8.0 | 19.3 | 0.00 | 0.00 | 0.00 | 34 | 1009.5 |
| 20260509225505 | 12 | 78 | 1.6 | 4.8 | 0.00 | 0.00 | 0.00 | 35 | 1009.3 |
| 20260509225005 | 12 | 100 | 0.0 | 4.8 | 0.00 | 0.00 | 0.00 | 36 | 1009.4 |
| 20260509224505 | 12 | 347 | 3.2 | 11.3 | 0.00 | 0.00 | 0.00 | 36 | 1009.3 |
| 20260509224005 | 12 | 25 | 1.6 | 4.8 | 0.00 | 0.00 | 0.00 | 37 | 1009.3 |
| 20260509223504 | 12 | 9 | 8.0 | 14.5 | 0.00 | 0.00 | 0.00 | 35 | 1009.2 |
| 20260509223004 | 12 | 36 | 1.6 | 4.8 | 0.00 | 0.00 | 0.00 | 35 | 1009.1 |
| 20260509222504 | 12 | 62 | 3.2 | 11.3 | 0.00 | 0.00 | 0.00 | 36 | 1009.2 |
| 20260509222005 | 12 | 63 | 3.2 | 12.9 | 0.00 | 0.00 | 0.00 | 36 | 1009.1 |
| 20260509221504 | 12 | 354 | 8.0 | 16.1 | 0.00 | 0.00 | 0.00 | 35 | 1009.0 |
| 20260509221004 | 12 | 323 | 3.2 | 16.1 | 0.00 | 0.00 | 0.00 | 35 | 1009.0 |
| 20260509220504 | 12 | 16 | 4.8 | 16.1 | 0.00 | 0.00 | 0.00 | 36 | 1008.9 |
| 20260509220004 | 12 | 0 | 4.8 | 11.3 | 0.00 | 0.00 | 0.00 | 34 | 1009.0 |
| 20260509215504 | 13 | 335 | 4.8 | 11.3 | 0.00 | 0.00 | 0.00 | 34 | 1009.0 |
| 20260509215004 | 13 | 14 | 0.0 | 12.9 | 0.00 | 0.00 | 0.00 | 35 | 1008.9 |
| 20260509214504 | 13 | 42 | 3.2 | 14.5 | 0.00 | 0.00 | 0.00 | 33 | 1008.9 |
| 20260509214006 | 13 | 91 | 3.2 | 8.0 | 0.00 | 0.00 | 0.00 | 36 | 1008.9 |
| 20260509213505 | 13 | 1 | 4.8 | 11.3 | 0.00 | 0.00 | 0.00 | 34 | 1008.9 |
| 20260509213004 | 13 | 65 | 3.2 | 16.1 | 0.00 | 0.00 | 0.00 | 33 | 1008.8 |
| 20260509212505 | 13 | 358 | 1.6 | 12.9 | 0.00 | 0.00 | 0.00 | 33 | 1008.7 |
| 20260509212004 | 13 | 330 | 4.8 | 12.9 | 0.00 | 0.00 | 0.00 | 36 | 1008.6 |
| 20260509211504 | 13 | 353 | 3.2 | 16.1 | 0.00 | 0.00 | 0.00 | 35 | 1008.7 |
| 20260509210505 | 12 | 5 | 1.6 | 4.8 | 0.00 | 0.00 | 0.00 | 36 | 1008.5 |
| 20260509210005 | 12 | 95 | 1.6 | 9.7 | 0.00 | 0.00 | 0.00 | 36 | 1008.5 |
| 20260509205504 | 12 | 15 | 6.4 | 19.3 | 0.00 | 0.00 | 0.00 | 35 | 1008.5 |
| 20260509205005 | 13 | 16 | 4.8 | 12.9 | 0.00 | 0.00 | 0.00 | 35 | 1008.4 |
| 20260509204504 | 13 | 7 | 3.2 | 14.5 | 0.00 | 0.00 | 0.00 | 35 | 1008.5 |
| 20260509204004 | 12 | 23 | 4.8 | 12.9 | 0.00 | 0.00 | 0.00 | 37 | 1008.3 |
| 20260509203504 | 12 | 1 | 3.2 | 11.3 | 0.00 | 0.00 | 0.00 | 36 | 1008.3 |
| 20260509203004 | 12 | 341 | 3.2 | 11.3 | 0.00 | 0.00 | 0.00 | 37 | 1008.3 |
| 20260509202004 | 12 | 340 | 8.0 | 24.1 | 0.00 | 0.00 | 0.00 | 35 | 1008.0 |
| 20260509201504 | 13 | 342 | 3.2 | 9.7 | 0.00 | 0.00 | 0.00 | 34 | 1008.1 |
| 20260509201005 | 13 | 42 | 3.2 | 11.3 | 0.00 | 0.00 | 0.00 | 36 | 1008.0 |
| 20260509200504 | 13 | 9 | 4.8 | 20.9 | 0.00 | 0.00 | 0.00 | 34 | 1007.8 |
| 20260509200004 | 13 | 41 | 3.2 | 20.9 | 0.00 | 0.00 | 0.00 | 36 | 1007.8 |
| 20260509195505 | 13 | 289 | 6.4 | 19.3 | 0.00 | 0.00 | 0.00 | 34 | 1007.8 |
| 20260509195004 | 12 | 310 | 1.6 | 12.9 | 0.00 | 0.00 | 0.00 | 36 | 1007.8 |
| 20260509194505 | 12 | 335 | 4.8 | 20.9 | 0.00 | 0.00 | 0.00 | 34 | 1008.0 |
| 20260509193505 | 13 | 347 | 4.8 | 12.9 | 0.00 | 0.00 | 0.00 | 35 | 1007.7 |
| 20260509193005 | 13 | 355 | 6.4 | 19.3 | 0.00 | 0.00 | 0.00 | 34 | 1007.7 |
| 20260509192504 | 12 | 348 | 6.4 | 16.1 | 0.00 | 0.00 | 0.00 | 36 | 1007.7 |
| 20260509190505 | 13 | 333 | 4.8 | 14.5 | 0.00 | 0.00 | 0.00 | 35 | 1007.6 |
| 20260509190004 | 13 | 47 | 4.8 | 11.3 | 0.00 | 0.00 | 0.00 | 37 | 1007.3 |
| 20260509185004 | 12 | 344 | 4.8 | 29.0 | 0.00 | 0.00 | 0.00 | 36 | 1007.2 |
| 20260509184504 | 13 | 356 | 4.8 | 16.1 | 0.00 | 0.00 | 0.00 | 37 | 1007.0 |
| 20260509184004 | 13 | 339 | 4.8 | 12.9 | 0.00 | 0.00 | 0.00 | 37 | 1007.0 |
| 20260509183504 | 13 | 31 | 3.2 | 14.5 | 0.00 | 0.00 | 0.00 | 38 | 1006.9 |
| 20260509183005 | 12 | 316 | 6.4 | 12.9 | 0.00 | 0.00 | 0.00 | 36 | 1007.0 |
| 20260509181504 | 13 | 314 | 8.0 | 22.5 | 0.00 | 0.00 | 0.00 | 35 | 1006.9 |
| 20260509180504 | 13 | 222 | 8.0 | 20.9 | 0.00 | 0.00 | 0.00 | 36 | 1006.8 |
| 20260509180004 | 13 | 36 | 8.0 | 19.3 | 0.00 | 0.00 | 0.00 | 35 | 1006.7 |